Flag for U.S.A. Weather past 2 weeks in Lafayette, Louisiana, U.S.A.

Now
63 °F

Sunny.


Feels Like: 63 °F
Forecast: 41 / 64 °F
Wind: 6 mph from North

Location: Lafayette Regional Airport

Current Time: Jan 31, 2015 at 3:20:07 PM

Latest Report: Jan 31, 2015 at 2:53 PM


Visibility: 10 mi

Pressure: 30.14 "Hg

Humidity: 58%

Dew point: 48 °F

Location of LafayetteLocation

Historic Weather in Lafayette — Graph

°F

Lafayette temperature yesterday

Maximum temperature yesterday: 60 °F (at 12:53 AM)
Minimum temperature yesterday: 43 °F (at 6:53 AM)
Average temperature yesterday: 51 °F

Past Weeks' High & Low Weather Summary

 TemperatureHumidityPressure
High83 °F (Jan 19, 3:53 PM)100% (Jan 17, 8:53 AM)30.42 "Hg (Jan 17, 8:53 AM)
Low34 °F (Jan 17, 7:53 AM)17% (Jan 18, 3:53 PM)29.89 "Hg (Jan 25, 4:53 PM)
Average53 °F68%30.14 "Hg
* Reported Jan 16 1:53 PM — Jan 31 1:53 PM, Lafayette, Weather by CustomWeather, © 2014

Note: Actual official high and low records may vary slightly from our data, if they occured in-between our weather recording intervals... More about our weather records

Advertising

Lafayette weather history for previous 24 hours

 ConditionsComfort  
Time TempWeatherWind HumidityBarometerVisibility
1:53 PM
Jan 31
63 °FSunny.5 mph58%30.16 "Hg10 mi
12:53 PM62 °FSunny.8 mph56%30.20 "Hg10 mi
11:53 AM60 °FSunny.8 mph56%30.24 "Hg10 mi
10:53 AM58 °FSunny.7 mph54%30.27 "Hg10 mi
9:53 AM53 °FSunny.3 mph56%30.29 "Hg10 mi
8:53 AM49 °FSunny.10 mph61%30.29 "Hg10 mi
7:53 AM44 °FSunny.7 mph68%30.28 "Hg10 mi
6:53 AM43 °FClear.6 mph68%30.28 "Hg10 mi
5:53 AM43 °FClear.3 mph68%30.28 "Hg10 mi
4:53 AM43 °FClear.5 mph68%30.26 "Hg10 mi
3:53 AM42 °FClear.5 mph71%30.27 "Hg10 mi
2:53 AM42 °FClear.5 mph71%30.28 "Hg10 mi
1:53 AM43 °FClear.3 mph71%30.29 "Hg10 mi
12:53 AM43 °FClear.3 mph68%30.31 "Hg10 mi
11:53 PM
Jan 30
43 °FClear.6 mph71%30.33 "Hg10 mi
10:53 PM45 °FClear.7 mph65%30.34 "Hg10 mi
9:53 PM46 °FClear.8 mph66%30.35 "Hg10 mi
8:53 PM47 °FClear.7 mph64%30.34 "Hg10 mi
7:53 PM48 °FClear.7 mph61%30.34 "Hg10 mi
6:53 PM51 °FClear.8 mph54%30.34 "Hg10 mi
5:53 PM53 °FClear.7 mph51%30.32 "Hg10 mi
4:53 PM58 °FSunny.9 mph44%30.32 "Hg10 mi
3:53 PM60 °FSunny.7 mph39%30.33 "Hg10 mi
Weather by CustomWeather, © 2014

See weather overviewHow to use our weather pages